Regional Weather Roundup
Issued by NWS Upton, NY

Current Version | Previous Version | Graphics & Text | Print | Product List | Glossary Off
Versions: 1 2 3 4 5 6 7 8 9 10 11 12 13 14 15 16 17 18 19 20 21 22 23 24 25 26 27 28 29 30 31 32 33 34 35 36 37 38 39 40 41 42 43 44 45 46 47 48 49 50

000
ASUS41 KOKX 191905
RWROKX

REGIONAL WEATHER ROUNDUP
NATIONAL WEATHER SERVICE NEW YORK NY
300 PM EDT FRI SEP 19 2014

NOTE: "FAIR" INDICATES FEW OR NO CLOUDS BELOW 12,000 FEET WITH NO
SIGNIFICANT WEATHER AND/OR OBSTRUCTIONS TO VISIBILITY.

NYZ071-072-176-178-NJZ106-104-192000-
NEW YORK CITY METRO AREA


CITY           SKY/WX    TMP DP  RH WIND       PRES   REMARKS
CENTRAL PARK   SUNNY     66  44  45 NE7       30.37F
LAGUARDIA APRT MOSUNNY   63  44  50 NE12      30.35S
KENNEDY INTL   PTSUNNY   66  46  48 E12       30.35S
NEWARK/LIBERTY PTSUNNY   64  45  49 VRB3      30.34F
BRNX BOT. GARD   N/A     63  41  45 NE9       30.36F
TETERBORO      SUNNY     64  43  46 E9        30.34S
$$

NYZ177-179-078>081-192000-
LONG ISLAND NEW YORK

CITY           SKY/WX    TMP DP  RH WIND       PRES   REMARKS
FARMINGDALE    MOSUNNY   66  45  46 NE8       30.35S
ISLIP          MOSUNNY   64  42  44 NE12      30.34R
SHIRLEY        SUNNY     65  42  43 VRB5      30.36S
WESTHAMPTON    SUNNY     64  42  44 NE12      30.37S
MONTAUK POINT    N/A     61  41  47 VRB5      30.39R
$$

NYZ052-065-067-192000-
HUDSON VALLEY

CITY           SKY/WX    TMP DP  RH WIND       PRES   REMARKS
WHITE PLAINS   SUNNY     61  41  47 S7        30.35S
NEWBURGH       MOSUNNY   63  43  48 SE8       30.36S
MONTGOMERY     SUNNY     65  42  43 E6        30.34S
POUGHKEEPSIE   SUNNY     64  39  39 VRB3      30.34S
ALBANY         MOSUNNY   59  36  42 CALM      30.36F
$$

NJZ001-105-106-008-010-013-015-019>022-104-192000-
NEW JERSEY

CITY           SKY/WX    TMP DP  RH WIND       PRES   REMARKS
NEWARK/LIBERTY PTSUNNY   64  45  49 VRB3      30.34F
TETERBORO      SUNNY     64  43  46 E9        30.34S
CALDWELL       SUNNY     64  42  44 SE12      30.34S
MORRISTOWN     MOSUNNY   66  45  45 S9        30.34S
SOMERVILLE     MOSUNNY   68  47  46 VRB5      30.31F
LINDEN         MOCLDY    69  50  50 SE10      30.35F
SUSSEX         MOSUNNY   66  44  45 CALM      30.33F
ANDOVER          N/A     66  44  45 VRB3      30.33S
TRENTON        PTSUNNY   66  48  52 SE8       30.32S
MILLVILLE      MOSUNNY   71  54  54 E14       30.30R
ATLANTIC CITY  PTSUNNY   69  56  62 NE20G25   30.30S
WRIGHTSTOWN    CLOUDY    65  53  65 NE13      30.31R
TOMS RIVER     CLOUDY    63  52  67 NE10      30.34S
BELMAR         CLOUDY    61  48  63 NE10      30.35R
$$

PAZ047>061-062-071-192000-
EASTERN PENNSYLVANIA

CITY           SKY/WX    TMP DP  RH WIND       PRES   REMARKS
PHILADELPHIA   PTSUNNY   71  52  50 E12       30.31S
ALLENTOWN      MOSUNNY   68  48  48 SE7       30.32S
SCRANTON       MOSUNNY   65  44  46 W3        30.30S
$$

CTZ002-004>006-009-010-012-RIZ004-006-007-MAZ004-011-015-192000-
SOUTHERN NEW ENGLAND
 IN CT

CITY           SKY/WX    TMP DP  RH WIND       PRES   REMARKS
BRADLEY INTL   MOSUNNY   63  33  32 E6        30.36F
HARTFORD       SUNNY     62  36  37 VRB6      30.36F
DANBURY        SUNNY     61  40  45 VRB3      30.37S
WTRBRY/OXFORD  SUNNY     59  37  44 VRB5      30.37S
BRIDGEPORT     PTSUNNY   63  43  48 E12       30.36S
MERIDEN        SUNNY     63  34  33 CALM      30.36F
NEW HAVEN      MOSUNNY   64  40  41 S9        30.37S
CHESTER        FAIR      61  36  39 N5        30.37S
GROTON         SUNNY     61  42  49 SE10      30.36S
WILLIMANTIC    SUNNY     61  32  33 NE7       30.37S

 IN RI

CITY           SKY/WX    TMP DP  RH WIND       PRES   REMARKS
PROVIDENCE     MOSUNNY   60  32  34 VRB5      30.38S
BLOCK ISLAND   SUNNY     59  39  47 NE9       30.38S
WESTERLY       SUNNY     62  35  36 E9        30.37R

 IN MA

CITY           SKY/WX    TMP DP  RH WIND       PRES   REMARKS
BOSTON         MOSUNNY   55  35  47 E9        30.42R
WORCESTER      SUNNY     54  30  40 E6        30.37F
WESTFIELD      SUNNY     61  32  33 N3        30.37F
PROVINCETOWN   SUNNY     55  36  47 NE10G16   30.41R
NANTUCKET      MOSUNNY   59  37  44 N20       30.37R
$$

ANZ330-335-338-340-345-350-353-355-192000-
COASTAL MARINE OBSERVATIONS


STATION/POSITION TIME  SKY/WX   TEMP    WIND        PRES    VSBY  WAVE
                                AIR SEA DIR/SP/G                  HT/PER
                 (UTC)          (F)     (DEG/KT/KT) (MB)    (MI)  (FT/S)
NY HARB ENTRANCE 1900            61 70   70/ 14/ 16 1027.8          4/ 6
4S FIRE IS       1900               70                N/A           4/ 5
20S FIRE ISLAND  1900            60 68   60/ 17/ 21 1027.7          5/ 7
23SW MTP         1900                                 N/A           5/ 6
HUDSON CANYON    1900            65 72   60/ 17/ 21 1025.4          6/ 7
EXECUTION ROCKS  1900            61 71   70/ 10/ 14   N/A
WESTERN LI SOUND 1900            59      90/ 10/ 14   N/A           2/ 4
CENTRAL LI SOUND 1800            58 70  100/  6/ 12   N/A           1/ 4
EASTERN LI SOUND 1800            61 68  130/  8/ 12   N/A
ROBBINS REEF     1900            62      50/ 10/ 12 1026.2
$$


>>>>>>>>>>>>>>>>>>>>>>>>>>>> KEY <<<<<<<<<<<<<<<<<<<<<<<<<<<
>                                                          <
>     SKY/WX - SKY CONDITION/PRESENT WEATHER               <
>     TMP    - TEMPERATURE IN FAHRENHEIT                   <
>     DP     - DEWPOINT IN FAHRENHEIT                      <
>     RH     - RELATIVE HUMIDITY IN PERCENT                <
>     WIND   - DIRECTION AND SPEED IN MPH                  <
>     PRES   - MEAN SEA LEVEL PRESSURE IN INCHES OF HG     <
>     WCI    - WIND CHILL INDEX                            <
>     VSB    - VISIBILITY IN MILES                         <
>     HX     - HEAT INDEX                                  <
>     TC     - TEMPERATURE IN CELSIUS                      <
>     VRB    - VARIABLE WIND DIRECTION                     <
>                                                          <
>>>>>>>>>>>>>>>>>>>>>>>>>>>> KEY <<<<<<<<<<<<<<<<<<<<<<<<<<<





USA.gov is the U.S. government's official web portal to all federal, state and local government web resources and services.